Tracking 19212 objects as of 18-Jul-2018
HD Live streaming from Space Station
objects crossing your sky now

COSMOS 332

Track COSMOS 332 now!
10-day predictions
COSMOS 332 is classified as:


NORAD ID: 4369
Int'l Code: 1970-028A
Perigee: 723.8 km
Apogee: 732.3 km
Inclination: 74.0 °
Period: 99.2 minutes
Semi major axis: 7099 km
RCS: 3.6339 m2 (large)
Launch date: April 11, 1970
Source: Commonwealth of Independent States (former USSR) (CIS)
Launch site: PLESETSK MISSILE AND SPACE COMPLEX (PKMTR)
aabbcc
Your satellite tracking list
Your tracking list is empty




NASA's NSSDC Master Catalog

Two Line Element Set (TLE):
1  4369U 70028A   18198.59063691 +.00000021 +00000-0 +12337-4 0  9998
2  4369 074.0382 311.5237 0005949 189.9628 170.1416 14.51448742548423
Source of the keplerian elements: AFSPC